TimeEDT,TemperatureF,Dew PointF,Humidity,Sea Level PressureIn,VisibilityMPH,Wind Direction,Wind SpeedMPH,Gust SpeedMPH,PrecipitationIn,Events,Conditions,WindDirDegrees,DateUTC
12:53 AM,59.0,55.9,90,30.12,10.0,Calm,Calm,-,N/A,,Overcast,0,2012-10-27 04:53:00
1:53 AM,59.0,55.0,87,30.10,10.0,Calm,Calm,-,N/A,,Overcast,0,2012-10-27 05:53:00
2:53 AM,57.9,55.0,90,30.08,10.0,Calm,Calm,-,N/A,,Overcast,0,2012-10-27 06:53:00
3:53 AM,57.9,55.0,90,30.06,10.0,Calm,Calm,-,N/A,,Overcast,0,2012-10-27 07:53:00
4:53 AM,57.9,55.9,93,30.05,10.0,Calm,Calm,-,N/A,,Overcast,0,2012-10-27 08:53:00
5:53 AM,57.9,55.9,93,30.05,10.0,Calm,Calm,-,N/A,,Overcast,0,2012-10-27 09:53:00
6:53 AM,57.9,55.0,90,30.05,10.0,Calm,Calm,-,N/A,,Overcast,0,2012-10-27 10:53:00
7:53 AM,59.0,55.0,87,30.06,10.0,Calm,Calm,-,N/A,,Overcast,0,2012-10-27 11:53:00
8:53 AM,60.1,54.0,80,30.06,10.0,North,3.5,-,N/A,,Overcast,360,2012-10-27 12:53:00
9:53 AM,61.0,54.0,78,30.06,10.0,NE,3.5,-,N/A,,Overcast,40,2012-10-27 13:53:00
11:32 AM,62.6,53.6,72,30.04,9.0,North,4.6,-,N/A,,Unknown,10,2012-10-27 15:32:00
11:53 AM,63.0,53.1,70,30.04,9.0,North,6.9,-,N/A,,Unknown,350,2012-10-27 15:53:00
12:02 PM,62.6,53.6,72,30.04,9.0,North,6.9,-,N/A,,Overcast,360,2012-10-27 16:02:00
12:25 PM,62.6,53.6,72,30.02,10.0,North,6.9,-,N/A,,Overcast,350,2012-10-27 16:25:00
12:53 PM,64.0,53.1,67,30.01,10.0,North,6.9,-,N/A,,Overcast,350,2012-10-27 16:53:00
1:53 PM,64.9,53.1,65,30.00,10.0,NE,5.8,-,N/A,,Mostly Cloudy,50,2012-10-27 17:53:00
2:53 PM,64.9,53.1,65,29.98,10.0,Variable,4.6,-,N/A,,Scattered Clouds,0,2012-10-27 18:53:00
3:53 PM,64.9,53.1,65,29.98,10.0,NE,3.5,-,N/A,,Clear,50,2012-10-27 19:53:00
4:53 PM,64.0,53.1,67,29.98,10.0,North,4.6,-,N/A,,Scattered Clouds,10,2012-10-27 20:53:00
5:53 PM,62.1,53.1,72,29.98,10.0,Calm,Calm,-,N/A,,Mostly Cloudy,0,2012-10-27 21:53:00
6:53 PM,61.0,53.1,75,29.99,10.0,NNE,4.6,-,N/A,,Partly Cloudy,30,2012-10-27 22:53:00
7:53 PM,60.1,53.1,78,29.98,10.0,NNE,4.6,-,N/A,,Clear,20,2012-10-27 23:53:00
8:53 PM,59.0,53.1,81,29.98,10.0,North,5.8,-,N/A,,Clear,10,2012-10-28 00:53:00
9:53 PM,57.9,52.0,81,29.97,9.0,North,5.8,-,N/A,,Clear,360,2012-10-28 01:53:00
10:53 PM,57.0,53.1,87,29.96,9.0,North,4.6,-,N/A,,Clear,360,2012-10-28 02:53:00